Location: Trois-Rivi�res
(46.3500°N, 72.5500°W)
Time: 22:14:33
(UTC-04:00)

Tiangong 1 - Pass Details

Date: 11 October 2017
Orbit: 294 x 320 km, 42.8° (Epoch: 17 October)

Event Time Altitude Azimuth Distance (km) Brightness Sun altitude
Rises 19:32:12 0° 265° (W) 2,041 6.5 -14.9°
Reaches altitude 10° 19:34:17 10° 255° (WSW) 1,205 4.7 -15.2°
Maximum altitude 19:36:46 33° 188° (S) 548 1.8 -15.7°
Enters shadow 19:37:14 30° 164° (SSE) 583 1.7 -15.8°
